Back to catalog

SL-16 DEB

AliveLEO
NORAD 39722·DEBRIS·🇷🇺 Russia

Launched Dec 25, 1992 from Baikonur Cosmodrome

Loading…

Next Passes (next 24 hours)

TLE

FreshSource: Space-Track

Epoch: Sep 14, 2026, 13:34 UTC

1 39722U 92093KN  26257.56553631  .00000254  00000-0  18734-3 0  9999
2 39722  70.8937 191.6301 0102041 134.9754  38.5798 14.02169815634179

Track SL-16 DEB in real time with AllMySat

Download on the App Store